Flag for U.S.A. Weather past 2 weeks in Fall River, Massachusetts, U.S.A.

Now
65 °F

Sunny.


Feels Like: 65 °F
Forecast: 50 / 70 °F
Wind: 8 mph from West

Location: New Bedford Regional Airport

Current Time: Sep 22, 2014 at 8:34:30 AM

Latest Report: Sep 22, 2014 at 7:53 AM


Visibility: 10 mi

Pressure: 29.69 "Hg

Humidity: 78%

Dew point: 58 °F

Location of Fall RiverLocation

Historic Weather in Fall River — Graph

°F

Fall River temperature yesterday

Maximum temperature yesterday: 76 °F (at 10:53 AM)
Minimum temperature yesterday: 57 °F (at 12:53 AM)
Average temperature yesterday: 69 °F

Past Weeks' High & Low Weather Summary

 TemperatureHumidityPressure
High78 °F (Sep 7, 1:53 PM)100% (Sep 7, 11:53 PM)30.42 "Hg (Sep 7, 11:53 PM)
Low34 °F (Sep 20, 2:53 AM)32% (Sep 17, 2:53 PM)29.55 "Hg (Sep 22, 12:53 AM)
Average61 °F77%30.09 "Hg
* Reported Sep 7 6:53 AM — Sep 22 6:53 AM, Fall River, Weather by CustomWeather, © 2014

Note: Actual official high and low records may vary slightly from our data, if they occured in-between our weather recording intervals... More about our weather records

Advertising

Fall River weather history for previous 24 hours

 ConditionsComfort  
Time TempWeatherWind HumidityBarometerVisibility
6:53 AM
Sep 22
63 °FClear.8 mph90%29.66 "Hg10 mi
5:53 AM66 °FClear.9 mph93%29.62 "Hg10 mi
4:53 AM67 °FClear.7 mph93%29.58 "Hg10 mi
3:53 AM68 °FPassing clouds.10 mph93%29.57 "Hg10 mi
2:53 AM67 °FLow clouds.9 mph97%29.56 "Hg10 mi
1:53 AM66 °FPassing clouds.8 mph96%29.55 "Hg10 mi
1:03 AM67 °FFog.7 mph97%29.56 "Hg3 mi
12:53 AM67 °FFog.7 mph97%29.55 "Hg2 mi
11:53 PM
Sep 21
66 °FFog.5 mph100%29.57 "Hg1 mi
10:53 PM66 °FFog.3 mph100%29.57 "Hg2 mi
9:53 PM67 °FFog.3 mph97%29.57 "Hg2 mi
8:55 PM68 °FFog.3 mph96%29.60 "Hg3 mi
7:53 PM68 °FPassing clouds.No wind96%29.60 "Hg8 mi
6:53 PM70 °FPartly sunny.3 mph93%29.62 "Hg10 mi
6:00 PM71 °FCloudy.5 mph93%29.65 "Hg9 mi
4:53 PM72 °FLow clouds.7 mph93%29.67 "Hg10 mi
3:53 PM73 °FLow clouds.10 mph88%29.70 "Hg10 mi
2:53 PM74 °FLow clouds.8 mph88%29.73 "Hg10 mi
1:53 PM76 °FOvercast.9 mph80%29.78 "Hg10 mi
12:53 PM75 °FOvercast.13 mph82%29.82 "Hg10 mi
11:53 AM76 °FMostly cloudy.15 mph80%29.87 "Hg10 mi
10:53 AM76 °FPartly sunny.14 mph77%29.90 "Hg10 mi
9:53 AM74 °FSunny.16 mph82%29.92 "Hg10 mi
8:53 AM71 °FSunny.10 mph87%29.93 "Hg10 mi
Weather by CustomWeather, © 2014

See weather overviewHow to use our weather pages